Weather History for Santiago de Compostela, Spain

Change the Weather History Date:

Sunday, August 24, 2014

  Actual Average Record
Temperature  
Mean Temperature 64 °F -  
Max Temperature 81 °F 71 °F 86 °F (2001)
Min Temperature 46 °F 53 °F 46 °F (2014)
Degree Days  
Heating Degree Days 2    
Growing Degree Days 14 (Base 50)    
Moisture  
Dew Point 53 °F    
Average Humidity 73    
Maximum Humidity 100    
Minimum Humidity 33    
Precipitation  
Precipitation 0.00 in - - ()
Sea Level Pressure  
Sea Level Pressure 30.13 in    
Wind  
Wind Speed 2 mph ()    
Max Wind Speed 8 mph    
Max Gust Speed -    
Visibility 5.9 miles    
Events Fog    
Averages and records for this station are not official NWS values.
T = Trace of Precipitation, MM = Missing Value Source: Averaged Metar Reports

Daily Weather History Graph

Daily Weather History Graph

Search for Another Location

Airport:

Trip Planner

Search our weather history database for the weather conditions in past years. The results will help you decide how hot, cold, wet, or windy it might be!

Date:

Astronomy

Aug. 24, 2014 Rise Set
Actual Time 7:49 AM CEST 9:21 PM CEST
Civil Twilight 7:19 AM CEST 9:51 PM CEST
Nautical Twilight 6:43 AM CEST 10:27 PM CEST
Astronomical Twilight 6:04 AM CEST 11:05 PM CEST
Moon 6:47 AM CEST (8/24) 8:32 PM CEST (8/24)
Length of Visible Light 14h 32m
Length of Day
13h 32m
Waning Crescent, 1% of the Moon is Illuminated
Aug 24
Waning Crescent
Aug 25
New
Sep 2
First Quarter
Sep 9
Full
Sep 16
Last Quarter

Hourly Weather History & Observations

Time (CEST) Temp. Dew Point Humidity Pressure Visibility Wind Dir Wind Speed Gust Speed Precip Events Conditions
12:00 AM 55.4 °F 51.8 °F 88% 30.18 in - NNE 3.5 mph - N/A   Clear
12:30 AM 57.2 °F 51.8 °F 82% 30.18 in - Variable 2.3 mph - N/A   Clear
1:30 AM 53.6 °F 50.0 °F 88% 30.18 in - Variable 1.2 mph - N/A   Clear
2:00 AM 51.8 °F 50.0 °F 94% 30.18 in - Calm Calm - N/A   Clear
2:30 AM 50.0 °F 48.2 °F 94% 30.18 in - Calm Calm - N/A   Clear
3:00 AM 50.0 °F 50.0 °F 100% 30.15 in - Calm Calm - N/A   Clear
3:30 AM 50.0 °F 50.0 °F 100% 30.15 in - Calm Calm - N/A   Clear
4:00 AM 50.0 °F 50.0 °F 100% 30.15 in - Calm Calm - N/A   Clear
4:30 AM 53.6 °F 51.8 °F 94% 30.12 in - East 4.6 mph - N/A   Clear
5:00 AM 50.0 °F 48.2 °F 94% 30.12 in - Variable 1.2 mph - N/A   Clear
5:30 AM 48.2 °F 48.2 °F 100% 30.12 in - Calm Calm - N/A   Clear
6:00 AM 48.2 °F 48.2 °F 100% 30.12 in 5.0 mi Calm Calm - N/A   Unknown
6:30 AM 48.2 °F 48.2 °F 100% 30.12 in 5.0 mi Calm Calm - N/A   Unknown
7:30 AM 48.2 °F 48.2 °F 100% 30.12 in 5.0 mi Calm Calm - N/A Fog Fog
8:00 AM 49 °F 48 °F 96% 30.16 in 5 mi Calm Calm - - Fog Light Fog
8:00 AM 50.0 °F 50.0 °F 100% 30.12 in 5.0 mi Calm Calm - N/A Fog Fog
8:30 AM 50.0 °F 50.0 °F 100% 30.12 in 5.0 mi Calm Calm - N/A Fog Fog
9:00 AM 51.8 °F 51.8 °F 100% 30.12 in 5.0 mi Calm Calm - N/A Fog Fog
9:30 AM 55.4 °F 51.8 °F 88% 30.12 in 5.0 mi Calm Calm - N/A Fog Fog
10:00 AM 51.8 °F 50.0 °F 94% 30.12 in 6.2 mi Variable 1.2 mph - N/A Fog Unknown
10:30 AM 57.2 °F 53.6 °F 88% 30.12 in 5.6 mi Calm Calm - N/A Fog Fog
11:00 AM 68 °F 56 °F 58% 30.11 in 9 mi South 2.3 mph - -   Partly Cloudy
11:00 AM 62.6 °F 55.4 °F 77% 30.12 in 5.6 mi Calm Calm - N/A Fog Fog
11:30 AM 64.4 °F 57.2 °F 77% 30.15 in 5.6 mi Variable 1.2 mph - N/A Fog Fog
12:00 PM 66.2 °F 57.2 °F 73% 30.15 in - Variable 1.2 mph - N/A   Clear
12:30 PM 68.0 °F 55.4 °F 64% 30.15 in - Variable 3.5 mph - N/A   Clear
1:00 PM 68.0 °F 55.4 °F 64% 30.15 in 6.2 mi Variable 3.5 mph - N/A   Partly Cloudy
1:30 PM 71.6 °F 55.4 °F 57% 30.15 in 6.2 mi WNW 4.6 mph - N/A   Partly Cloudy
2:00 PM 76 °F 56 °F 39% 30.10 in 22 mi West 5.8 mph - -   Scattered Clouds
2:00 PM 73.4 °F 53.6 °F 50% 30.15 in 6.2 mi West 5.8 mph - N/A   Partly Cloudy
2:30 PM 73.4 °F 53.6 °F 50% 30.15 in 6.2 mi WSW 4.6 mph - N/A   Partly Cloudy
3:00 PM 73.4 °F 55.4 °F 53% 30.15 in 6.2 mi West 5.8 mph - N/A   Partly Cloudy
3:30 PM 75.2 °F 55.4 °F 50% 30.15 in 6.2 mi West 6.9 mph - N/A   Partly Cloudy
4:00 PM 75.2 °F 53.6 °F 47% 30.12 in 6.2 mi West 4.6 mph - N/A   Partly Cloudy
4:30 PM 75.2 °F 53.6 °F 47% 30.12 in 6.2 mi SW 4.6 mph - N/A   Partly Cloudy
5:00 PM 81 °F 57 °F 33% 30.07 in 22 mi WSW 8.1 mph - -   Scattered Clouds
5:00 PM 77.0 °F 55.4 °F 47% 30.12 in 6.2 mi West 6.9 mph - N/A   Partly Cloudy
5:30 PM 77.0 °F 55.4 °F 47% 30.12 in 6.2 mi West 5.8 mph - N/A   Partly Cloudy
6:00 PM 75.2 °F 53.6 °F 47% 30.12 in 6.2 mi SW 6.9 mph - N/A   Partly Cloudy
6:30 PM 75.2 °F 55.4 °F 50% 30.12 in 6.2 mi WSW 6.9 mph - N/A   Partly Cloudy
7:30 PM 73.4 °F 57.2 °F 57% 30.12 in 6.2 mi WSW 5.8 mph - N/A   Partly Cloudy
8:00 PM 75 °F 55 °F 39% 30.07 in 22 mi SSW 8.1 mph - -   Scattered Clouds
8:00 PM 71.6 °F 55.4 °F 57% 30.12 in 6.2 mi WSW 8.1 mph - N/A   Partly Cloudy
8:30 PM 69.8 °F 53.6 °F 56% 30.12 in 6.2 mi West 5.8 mph - N/A   Partly Cloudy
9:00 PM 68.0 °F 53.6 °F 60% 30.12 in 6.2 mi West 3.5 mph - N/A   Partly Cloudy
9:30 PM 66.2 °F 53.6 °F 64% 30.12 in 6.2 mi Variable 2.3 mph - N/A   Partly Cloudy
10:00 PM 62.6 °F 53.6 °F 72% 30.12 in 6.2 mi WNW 3.5 mph - N/A   Partly Cloudy
10:30 PM 62.6 °F 53.6 °F 72% 30.15 in 6.2 mi Variable 1.2 mph - N/A   Partly Cloudy
11:00 PM 60.8 °F 51.8 °F 72% 30.15 in 6.2 mi Calm Calm - N/A   Partly Cloudy
11:30 PM 59.0 °F 51.8 °F 77% 30.15 in 6.2 mi Calm Calm - N/A   Partly Cloudy